Harlan, IA

10:54 AM CST on December 10, 2016 (GMT -0600)
Harlan Municipal

Weather History for KHNR - October, 2011

Change the Weather History Date:

Thursday, October 13, 2011

  Actual Average Record
Temperature  
Mean Temperature 60 °F -  
Max Temperature 71 °F 64 °F 88 °F (1975)
Min Temperature 48 °F 42 °F 26 °F (1979)
Degree Days  
Heating Degree Days 6    
Growing Degree Days 10 (Base 50)    
Moisture  
Dew Point 37 °F    
Average Humidity 51    
Maximum Humidity 82    
Minimum Humidity 17    
Precipitation  
Precipitation 0.00 in - - ()
Sea Level Pressure  
Sea Level Pressure 29.82 in    
Wind  
Wind Speed 13 mph (WNW)    
Max Wind Speed 25 mph    
Max Gust Speed 38 mph    
Visibility 10 miles    
Events      
Averages and records for this station are not official NWS values.
T = Trace of Precipitation, MM = Missing Value Source: NWS Daily Summary

Daily Weather History Graph

Daily Weather History Graph

Search for Another Location

Airport or City:

Trip Planner

Search our weather history database for the weather conditions in past years. The results will help you decide how hot, cold, wet, or windy it might be!

Date:

Astronomy

Oct. 13, 2011 Rise Set
Actual Time 7:30 AM CDT 6:43 PM CDT
Civil Twilight 7:03 AM CDT 7:11 PM CDT
Nautical Twilight 6:30 AM CDT 7:43 PM CDT
Astronomical Twilight 5:58 AM CDT 8:15 PM CDT
Moon 7:17 PM CDT (10/13) 9:05 AM CDT (10/13)
Length of Visible Light 12h 08m
Length of Day
11h 12m
Full, 98% of the Moon is Illuminated
Oct 13
Full
Oct 19
Last Quarter
Oct 26
New
Nov 2
First Quarter
Nov 10
Full

Hourly Weather History & Observations

Time (CDT) Temp. Dew Point Humidity Pressure Visibility Wind Dir Wind Speed Gust Speed Precip Events Conditions
12:15 AM 53.6 °F 46.4 °F 77% 29.79 in 10.0 mi WNW 10.4 mph - N/A   Clear
12:35 AM 53.6 °F 46.4 °F 77% 29.79 in 10.0 mi WNW 11.5 mph - N/A   Clear
12:55 AM 53.6 °F 46.4 °F 77% 29.79 in 10.0 mi WNW 11.5 mph - N/A   Clear
1:15 AM 51.8 °F 46.4 °F 82% 29.79 in 10.0 mi WNW 10.4 mph - N/A   Clear
1:35 AM 51.8 °F 46.4 °F 82% 29.79 in 10.0 mi WNW 11.5 mph - N/A   Clear
1:55 AM 51.8 °F 44.6 °F 76% 29.80 in 10.0 mi WNW 11.5 mph - N/A   Clear
2:15 AM 51.8 °F 44.6 °F 76% 29.80 in 10.0 mi WNW 11.5 mph - N/A   Clear
2:35 AM 51.8 °F 44.6 °F 76% 29.80 in 10.0 mi WNW 11.5 mph - N/A   Clear
2:55 AM 51.8 °F 44.6 °F 76% 29.80 in 10.0 mi WNW 10.4 mph - N/A   Clear
3:15 AM 50.0 °F 44.6 °F 82% 29.81 in 10.0 mi WNW 11.5 mph - N/A   Clear
3:35 AM 50.0 °F 44.6 °F 82% 29.81 in 10.0 mi WNW 11.5 mph - N/A   Clear
3:55 AM 50.0 °F 44.6 °F 82% 29.81 in 10.0 mi WNW 6.9 mph - N/A   Clear
4:15 AM 48.2 °F 42.8 °F 82% 29.81 in 10.0 mi NW 5.8 mph - N/A   Clear
4:35 AM 50.0 °F 42.8 °F 76% 29.81 in 10.0 mi WNW 12.7 mph - N/A   Clear
4:55 AM 50.0 °F 42.8 °F 76% 29.82 in 10.0 mi WNW 13.8 mph - N/A   Clear
5:15 AM 50.0 °F 42.8 °F 76% 29.82 in 10.0 mi WNW 15.0 mph - N/A   Clear
5:35 AM 51.8 °F 42.8 °F 71% 29.82 in 10.0 mi WNW 15.0 mph - N/A   Clear
5:55 AM 50.0 °F 42.8 °F 76% 29.82 in 10.0 mi WNW 11.5 mph - N/A   Clear
6:15 AM 48.2 °F 42.8 °F 82% 29.83 in 10.0 mi WNW 10.4 mph - N/A   Clear
6:55 AM 48.2 °F 42.8 °F 82% 29.83 in 10.0 mi WNW 10.4 mph - N/A   Clear
7:35 AM 48.2 °F 42.8 °F 82% 29.83 in 10.0 mi WNW 10.4 mph - N/A   Clear
7:55 AM 48.2 °F 42.8 °F 82% 29.83 in 10.0 mi WNW 8.1 mph - N/A   Clear
8:35 AM 51.8 °F 44.6 °F 76% 29.84 in 10.0 mi WNW 9.2 mph - N/A   Clear
8:55 AM 51.8 °F 44.6 °F 76% 29.85 in 10.0 mi WNW 10.4 mph - N/A   Clear
9:15 AM 53.6 °F 44.6 °F 72% 29.86 in 10.0 mi WNW 10.4 mph - N/A   Clear
9:35 AM 55.4 °F 44.6 °F 67% 29.86 in 10.0 mi WNW 10.4 mph - N/A   Clear
9:55 AM 57.2 °F 46.4 °F 67% 29.86 in 10.0 mi WNW 10.4 mph - N/A   Clear
10:15 AM 57.2 °F 46.4 °F 67% 29.86 in 10.0 mi WNW 10.4 mph - N/A   Clear
10:35 AM 60.8 °F 46.4 °F 59% 29.86 in 10.0 mi West 11.5 mph - N/A   Clear
10:55 AM 60.8 °F 44.6 °F 55% 29.86 in 10.0 mi WNW 15.0 mph - N/A   Clear
11:15 AM 62.6 °F 44.6 °F 52% 29.86 in 10.0 mi WNW 16.1 mph - N/A   Clear
11:35 AM 62.6 °F 42.8 °F 48% 29.85 in 10.0 mi WNW 18.4 mph - N/A   Clear
11:55 AM 64.4 °F 42.8 °F 45% 29.85 in 10.0 mi NW 15.0 mph - N/A   Clear
12:15 PM 64.4 °F 41.0 °F 42% 29.85 in 10.0 mi WNW 18.4 mph 24.2 mph N/A   Clear
12:35 PM 66.2 °F 39.2 °F 37% 29.85 in 10.0 mi NW 19.6 mph 26.5 mph N/A   Clear
12:55 PM 66.2 °F 37.4 °F 35% 29.84 in 10.0 mi WNW 19.6 mph 26.5 mph N/A   Clear
1:15 PM 68.0 °F 35.6 °F 30% 29.83 in 10.0 mi NW 17.3 mph 23.0 mph N/A   Clear
1:35 PM 68.0 °F 35.6 °F 30% 29.83 in 10.0 mi NW 19.6 mph 26.5 mph N/A   Clear
1:55 PM 69.8 °F 33.8 °F 27% 29.82 in 10.0 mi NW 20.7 mph 27.6 mph N/A   Clear
2:15 PM 69.8 °F 30.2 °F 23% 29.81 in 10.0 mi NW 23.0 mph 28.8 mph N/A   Scattered Clouds
2:35 PM 71.6 °F 28.4 °F 20% 29.80 in 10.0 mi NW 20.7 mph 28.8 mph N/A   Scattered Clouds
2:55 PM 71.6 °F 26.6 °F 19% 29.80 in 10.0 mi WNW 25.3 mph 38.0 mph N/A   Clear
3:15 PM 71.6 °F 24.8 °F 17% 29.79 in 10.0 mi WNW 25.3 mph 33.4 mph N/A   Clear
3:35 PM 71.6 °F 24.8 °F 17% 29.80 in 10.0 mi NW 24.2 mph 31.1 mph N/A   Clear
3:55 PM 71.6 °F 24.8 °F 17% 29.79 in 10.0 mi NW 19.6 mph 28.8 mph N/A   Clear
4:15 PM 69.8 °F 23.0 °F 17% 29.79 in 10.0 mi NW 21.9 mph 32.2 mph N/A   Clear
4:35 PM 69.8 °F 24.8 °F 18% 29.79 in 10.0 mi NW 17.3 mph 29.9 mph N/A   Scattered Clouds
4:55 PM 69.8 °F 26.6 °F 20% 29.78 in 10.0 mi WNW 16.1 mph 20.7 mph N/A   Scattered Clouds
5:15 PM 69.8 °F 24.8 °F 18% 29.79 in 10.0 mi WNW 21.9 mph 31.1 mph N/A   Scattered Clouds
5:35 PM 69.8 °F 26.6 °F 20% 29.79 in 10.0 mi NW 19.6 mph 24.2 mph N/A   Scattered Clouds
5:55 PM 68.0 °F 26.6 °F 21% 29.79 in 10.0 mi WNW 18.4 mph 24.2 mph N/A   Clear
6:15 PM 66.2 °F 24.8 °F 21% 29.79 in 10.0 mi NW 17.3 mph 24.2 mph N/A   Clear
6:35 PM 64.4 °F 26.6 °F 24% 29.79 in 10.0 mi WNW 11.5 mph - N/A   Clear
6:55 PM 62.6 °F 26.6 °F 26% 29.80 in 10.0 mi WNW 13.8 mph 17.3 mph N/A   Clear
7:15 PM 62.6 °F 26.6 °F 26% 29.81 in 10.0 mi NW 10.4 mph - N/A   Clear
7:35 PM 60.8 °F 26.6 °F 27% 29.82 in 10.0 mi NW 13.8 mph 17.3 mph N/A   Clear
7:55 PM 62.6 °F 26.6 °F 26% 29.82 in 10.0 mi NW 10.4 mph - N/A   Clear
8:15 PM 62.6 °F 26.6 °F 26% 29.83 in 10.0 mi NW 11.5 mph 18.4 mph N/A   Clear
8:35 PM 59.0 °F 26.6 °F 29% 29.83 in 10.0 mi NW 10.4 mph - N/A   Clear
8:55 PM 59.0 °F 28.4 °F 31% 29.84 in 10.0 mi WNW 11.5 mph - N/A   Clear
9:15 PM 55.4 °F 30.2 °F 38% 29.84 in 10.0 mi WNW 8.1 mph - N/A   Clear
9:35 PM 55.4 °F 30.2 °F 38% 29.84 in 10.0 mi WNW 10.4 mph - N/A   Clear
9:55 PM 53.6 °F 30.2 °F 41% 29.84 in 10.0 mi WNW 9.2 mph - N/A   Clear
10:15 PM 53.6 °F 30.2 °F 41% 29.84 in 10.0 mi WNW 9.2 mph - N/A   Clear
10:35 PM 53.6 °F 30.2 °F 41% 29.84 in 10.0 mi West 9.2 mph - N/A   Clear
10:55 PM 51.8 °F 30.2 °F 44% 29.84 in 10.0 mi West 9.2 mph - N/A   Clear
11:15 PM 51.8 °F 30.2 °F 44% 29.84 in 10.0 mi West 8.1 mph - N/A   Clear
11:35 PM 48.2 °F 30.2 °F 50% 29.85 in 10.0 mi West 9.2 mph - N/A   Clear
11:55 PM 48.2 °F 32.0 °F 54% 29.85 in 10.0 mi West 9.2 mph - N/A   Clear